Regional Weather Roundup
Issued by NWS Green Bay, WI

Home | Current Version | Previous Version | Text Only | Print | Product List | Glossary On
Versions: 1 2 3 4 5 6 7 8 9 10 11 12 13 14 15 16 17 18 19 20 21 22 23 24 25 26 27 28 29 30 31 32 33 34 35 36 37 38 39 40 41 42 43 44 45 46 47 48 49 50
000
ASUS43 KGRB 171811
RWRGRB

NORTH-CENTRAL AND NORTHEAST WISCONSIN REGIONAL WEATHER ROUNDUP
NATIONAL WEATHER SERVICE GREEN BAY WI
100 PM CDT THU AUG 17 2017

WIZ005-009-010>012-018-019-171900-
NORTH CENTRAL WISCONSIN

CITY           SKY/WX    TMP DP  RH WIND       PRES   REMARKS
IRONWOOD       LGT RAIN  70  64  83 SW8       29.56F
MANITOWISH WTR HVY RAIN  65  65 100 S6G16     29.58S
ARBOR VITAE    CLOUDY    72  66  81 S7G17     29.57F
EAGLE RIVER    CLOUDY    72  62  71 S10       29.57F
LAND O LAKES   PTSUNNY   72  65  78 SW7       29.59F
RHINELANDER    CLOUDY    70  63  78 S8G18     29.59S
PHILLIPS       DRIZZLE   65  65 100 CALM      29.56F
ANTIGO         CLOUDY    71  63  77 SW13      29.59F
TOMAHAWK       DRIZZLE   66  64  94 CALM      29.58F
MERRILL        RAIN      66  66 100 S7        29.57F
$$

WIZ013-073-171900-
NORTHEAST WISCONSIN

CITY           SKY/WX    TMP DP  RH WIND       PRES   REMARKS
IRON MOUNTAIN  PTSUNNY   78  64  61 S10G22    29.56F
MARINETTE      CLOUDY    74  68  81 SW10      29.59F
OCONTO         CLOUDY    78  67  68 S14G20    29.58F
$$

WIZ017-030-035>037-045-171900-
CENTRAL WISCONSIN

CITY           SKY/WX    TMP DP  RH WIND       PRES   REMARKS
MEDFORD        CLOUDY    66  65  95 S12       29.54F FOG
WAUSAU         LGT RAIN  67  66  97 S14G23    29.55F FOG
MOSINEE        LGT RAIN  66  66 100 S14G20    29.59F
MARSHFIELD     LGT RAIN  68  65  90 SW18G28   29.56F FOG
WISC RAPIDS    LGT RAIN  69  66  90 SW13G22   29.60F
STEVENS POINT  HVY RAIN  67  66  96 S18G24    29.59F
WAUPACA        CLOUDY    75  64  68 SW16G23   29.61F
SHAWANO        CLOUDY    77  65  68 SW7G16    29.59F
CLINTONVILLE   PTSUNNY   77  63  61 SW17      29.59F
WAUTOMA        CLOUDY    73  65  75 S15G21    29.61F
$$

WIZ038-039-048-051-171900-
FOX VALLEY

CITY           SKY/WX    TMP DP  RH WIND       PRES   REMARKS
NWS GREEN BAY  PTSUNNY   76  68  76 SW9G20    29.60F
APPLETON       LGT RAIN  75  61  60 SW21G28   29.62F
OSHKOSH        PTSUNNY   74  64  71 S16G29    29.63F
FOND DU LAC    PTSUNNY   77  63  61 SW17G26   29.64F
$$

WIZ022-050-052-171900-
EAST CENTRAL WISCONSIN

CITY           SKY/WX    TMP DP  RH WIND       PRES   REMARKS
EPHRAIM        FAIR      77  70  79 S7G17     29.59F
WASHINGTON ISL CLOUDY    71  69  92 S12G18    29.60F
STURGEON BAY   MOSUNNY   77  71  82 S13G22    29.60F
MANITOWOC      LGT RAIN  71  66  84 SW8       29.63F
SHEBOYGAN      CLOUDY    76  67  73 SW18G26   29.64F
$$

LMZ563-521-522-541>543-171900-
LAKESHORE

STATION/POSITION TIME  TEMP    WIND        PRES    VSBY  WAVE
                       AIR SEA DIR/SP/G                  HT/PER
                 (UTC) (F)     (DEG/KT/KT) (MB)    (MI)  (FT/S)
SHEBOYGAN LKSHOR 1800   72     190/ 19/ 22 1003.1F
KEWAUNEE LKSHORE 1748   71     180/ 19/ 22 1002.4F
NORTHPORT PIER   1740   71     160/ 10/ 16 1003.0F
N MID LAKE BUOY  1750   69 67  160/ 14/ 17 1003.9F         4/ 5
S GREEN BAY BUOY 1800   73 72  220/ 14/ 16 1001.9
SISTER BAY LKSHO 1803   79     160/ 14/ 19   N/A
MENOMINEE LKSHOR 1748   75     160/  9/ 17 1001.7F
$$




USA.gov is the U.S. government's official web portal to all federal, state and local government web resources and services.